Location: Kernascl�den
(48.0062°N, 3.3198°W)
Time: 22:23:39
(UTC+00:00)

Cosmos 2058 Rocket - Pass Details

Date: 21 January 2021
Orbit: 611 x 639 km, 82.5° (Epoch: 03 March)

Event Time Altitude Azimuth Distance (km) Brightness Sun altitude
Rises 17:40:01 0° 356° (N) 2,943 6.4 -7.4°
Reaches altitude 10° 17:42:24 10° 5° (N) 2,034 5.5 -7.8°
Maximum altitude 17:46:38 39° 74° (ENE) 964 3.6 -8.4°
Drops below altitude 10° 17:50:51 10° 144° (SE) 2,026 5.5 -9.1°
Sets 17:53:13 0° 152° (SSE) 2,930 6.4 -9.5°
